Time,TemperatureF,DewpointF,PressureIn,WindDirection,WindDirectionDegrees,WindSpeedMPH,WindSpeedGustMPH,Humidity,HourlyPrecipIn,Conditions,Clouds,dailyrainin,SoftwareType,DateUTC
2013-07-08 00:34:00,71.2,66.5,30.49,NNW,338,0.0,0.0,85,0.00,,,0.00,WUHU21623XXSP,2013-07-08 04:34:00,
2013-07-08 01:34:00,71.4,67.0,30.49,NNW,338,0.0,0.0,86,0.00,,,0.00,WUHU21623XXSP,2013-07-08 05:34:00,
2013-07-08 02:34:00,71.2,67.1,30.50,NNW,338,0.0,0.0,87,0.00,,,0.00,WUHU21623XXSP,2013-07-08 06:34:00,
2013-07-08 03:34:00,70.5,66.5,30.49,NNW,338,0.0,0.0,87,0.00,,,0.00,WUHU21623XXSP,2013-07-08 07:34:00,
2013-07-08 04:34:00,70.3,66.6,30.48,NNW,338,0.0,0.0,88,0.00,,,0.00,WUHU21623XXSP,2013-07-08 08:34:00,
2013-07-08 05:34:00,69.8,66.4,30.48,NNW,338,0.0,0.0,89,0.00,,,0.00,WUHU21623XXSP,2013-07-08 09:34:00,
2013-07-08 06:34:00,70.3,67.2,30.48,NW,315,0.0,0.0,90,0.00,,,0.00,WUHU21623XXSP,2013-07-08 10:34:00,
2013-07-08 07:34:00,70.7,67.9,30.47,SW,225,0.0,0.0,91,0.00,,,0.00,WUHU21623XXSP,2013-07-08 11:34:00,
2013-07-08 08:34:00,71.8,69.0,30.49,SSW,203,0.0,0.0,91,0.00,,,0.00,WUHU21623XXSP,2013-07-08 12:34:00,
2013-07-08 09:34:00,73.9,70.4,30.47,North,0,0.0,0.0,89,0.00,,,0.00,WUHU21623XXSP,2013-07-08 13:34:00,
2013-07-08 10:34:00,75.4,70.9,30.48,SW,225,0.0,0.0,86,0.00,,,0.00,WUHU21623XXSP,2013-07-08 14:34:00,
2013-07-08 11:34:00,77.5,72.0,30.49,WNW,293,0.0,0.0,83,0.00,,,0.00,WUHU21623XXSP,2013-07-08 15:34:00,
2013-07-08 12:34:00,78.4,72.2,30.49,NW,315,0.0,0.0,81,0.00,,,0.00,WUHU21623XXSP,2013-07-08 16:34:00,
2013-07-08 13:34:00,78.8,72.2,30.48,SSW,203,0.0,0.0,80,0.00,,,0.00,WUHU21623XXSP,2013-07-08 17:34:00,
2013-07-08 14:34:00,77.2,69.6,30.48,NW,315,0.0,0.0,77,0.00,,,0.00,WUHU21623XXSP,2013-07-08 18:34:00,
2013-07-08 15:34:00,76.3,69.1,30.46,NW,315,0.0,0.0,78,0.00,,,0.00,WUHU21623XXSP,2013-07-08 19:34:00,
2013-07-08 16:34:00,76.8,69.2,30.46,WNW,293,0.0,0.0,77,0.00,,,0.00,WUHU21623XXSP,2013-07-08 20:34:00,
2013-07-08 17:34:00,71.4,67.3,30.46,West,270,0.0,0.0,87,0.00,,,0.00,WUHU21623XXSP,2013-07-08 21:34:00,
2013-07-08 18:34:00,71.2,68.1,30.45,West,270,0.0,0.0,90,0.00,,,0.00,WUHU21623XXSP,2013-07-08 22:34:00,
2013-07-08 19:34:00,72.7,69.9,30.45,WSW,248,0.0,0.0,91,0.00,,,0.00,WUHU21623XXSP,2013-07-08 23:34:00,
2013-07-08 20:34:00,72.9,70.1,30.45,WSW,248,0.0,0.0,91,0.00,,,0.00,WUHU21623XXSP,2013-07-09 00:34:00,
2013-07-08 21:34:00,72.1,69.3,30.46,WSW,248,0.0,0.0,91,0.00,,,0.00,WUHU21623XXSP,2013-07-09 01:34:00,
2013-07-08 22:34:00,70.7,67.6,30.47,WSW,248,0.0,0.0,90,0.00,,,0.00,WUHU21623XXSP,2013-07-09 02:34:00,
2013-07-08 23:34:00,70.2,67.4,30.47,WSW,248,0.0,0.0,91,0.00,,,0.00,WUHU21623XXSP,2013-07-09 03:34:00,